Theta_e
306 307 308 308 308 308 307 307 308 308 309 309 309 309 308 308 309 311 312 312 311 311 310 310 311 309 307 306 307 307 308 312 320 324 324 323 321 320 319 319 318 316 315 314 317 318 317 317 318 318 317 319 319 320 319 318 320 318 320 320 316 317 318 319 320 320 319 320 321 322 322 321 321 322 325 324 325 327 325 329 332 334 339 338 342 346 348 347
303 304 304 305 305 305 305 305 306 307 308 309 309 309 308 308 309 310 312 312 312 311 311 310 310 310 308 306 306 306 308 315 322 324 323 324 324 322 319 317 317 314 314 315 317 318 317 318 318 318 317 319 319 319 317 318 320 318 321 321 318 320 320 319 320 320 321 320 321 321 320 321 321 322 323 323 325 325 325 330 333 335 341 343 344 347 347 347
301 301 300 301 302 302 302 303 303 305 306 308 309 310 309 308 309 310 311 312 313 312 312 312 310 310 308 307 306 305 312 321 326 325 322 324 325 322 318 316 316 314 314 316 318 318 319 320 319 319 318 319 320 319 318 319 320 319 320 320 320 322 320 319 320 321 321 320 321 321 320 322 321 322 321 323 323 323 326 329 331 333 341 347 346 347 347 347
300 300 300 300 300 301 301 301 302 302 303 306 308 311 311 309 309 309 310 313 314 312 313 313 312 311 307 308 306 306 318 326 327 325 324 323 322 319 316 315 315 314 314 317 318 318 319 320 320 320 320 320 320 320 319 319 320 320 320 320 321 320 319 320 320 320 321 321 321 320 321 321 321 322 321 323 323 323 327 327 327 331 342 348 346 348 347 346
300 300 300 300 300 300 301 301 301 301 302 304 307 310 311 310 309 310 310 313 314 313 314 314 313 310 308 308 305 309 322 326 322 323 320 319 317 315 314 315 314 313 316 317 319 319 319 321 320 320 320 320 321 320 320 320 320 320 319 319 319 319 320 321 321 321 321 321 320 320 321 320 321 321 321 322 322 323 326 326 327 328 337 344 345 347 347 346
300 300 300 301 300 301 301 301 301 302 302 303 305 309 312 311 310 310 311 313 314 314 315 315 314 311 309 307 305 313 323 324 321 320 316 315 314 314 314 314 314 315 317 319 319 320 319 320 320 320 320 320 321 320 320 321 321 319 319 320 320 320 320 320 321 319 321 320 320 320 321 320 320 320 321 321 321 322 323 325 327 328 334 342 345 348 347 347
300 300 300 300 301 301 301 302 302 302 303 303 304 308 311 311 310 310 311 313 314 314 315 316 315 312 309 307 311 318 323 322 323 320 315 315 313 314 314 314 315 315 319 320 319 319 319 320 320 320 320 320 321 320 320 320 320 319 319 320 320 320 320 320 321 320 321 320 320 321 320 321 320 320 321 321 321 322 322 324 326 327 332 338 344 348 346 344
300 300 300 300 300 300 301 301 302 302 303 304 304 307 310 311 310 310 312 313 314 314 316 317 316 313 309 310 317 322 322 324 323 318 315 315 313 314 314 316 316 316 320 321 321 320 319 320 319 320 319 320 321 320 321 320 319 320 319 320 320 321 320 321 321 320 320 320 320 320 320 320 320 321 320 321 322 321 322 323 325 326 326 333 341 343 340 340
299 299 299 299 299 300 300 301 301 302 303 304 305 307 310 311 310 311 312 313 314 315 317 318 318 314 308 311 317 318 321 325 320 317 316 315 313 314 315 318 317 318 320 321 320 319 319 320 320 320 319 319 320 320 320 319 319 320 321 321 320 320 320 320 321 320 321 320 320 320 319 321 320 321 320 322 322 321 322 322 326 326 326 338 341 340 337 336
299 299 299 299 299 299 300 300 301 302 302 303 304 307 310 310 311 311 312 313 314 316 317 317 319 315 311 315 318 319 323 323 318 318 316 316 315 315 316 318 318 318 319 319 320 320 320 320 320 321 319 319 320 320 319 319 319 320 320 320 320 319 320 319 320 320 320 321 321 320 319 321 321 321 321 322 323 322 323 323 326 326 331 340 340 340 339 335
298 298 298 299 299 299 300 300 301 301 302 303 305 306 310 311 311 311 312 313 314 316 317 316 318 317 316 320 319 321 324 323 321 319 318 318 317 317 318 318 319 318 318 319 319 320 320 320 320 320 319 319 318 320 320 320 320 320 320 319 319 319 320 319 319 320 320 321 321 320 320 320 321 320 321 322 323 322 323 322 325 327 331 335 335 339 340 336
298 298 298 298 299 300 300 300 301 301 302 303 304 307 310 311 311 311 312 313 314 316 316 316 317 316 319 322 320 322 323 323 325 322 321 320 318 318 318 318 320 319 318 320 320 321 321 320 321 319 319 319 318 319 320 320 320 319 319 319 319 320 319 320 320 320 320 320 320 320 318 319 320 321 322 322 322 323 323 323 323 327 330 332 335 340 340 338
298 298 298 299 299 300 300 300 301 302 302 303 304 307 311 311 312 312 312 313 315 317 316 316 315 315 319 323 321 324 323 323 323 324 322 321 321 318 317 319 320 319 319 319 320 320 320 320 320 318 319 318 319 318 318 320 319 319 319 319 318 317 318 320 321 320 321 320 321 319 313 315 322 321 323 323 323 324 323 323 323 325 327 332 337 341 340 338
299 298 299 299 299 300 300 300 301 301 302 303 305 309 311 312 313 313 312 313 315 316 317 315 312 317 323 323 322 323 323 324 323 323 323 322 322 320 319 319 319 320 320 319 320 320 319 320 320 318 319 318 318 318 318 319 318 320 318 317 318 313 314 322 321 321 321 320 321 320 312 315 322 322 323 324 324 324 323 323 324 323 326 332 338 339 339 337
299 298 299 299 299 300 300 300 301 301 302 303 307 311 313 313 315 315 313 314 316 316 317 315 313 320 327 325 324 324 322 322 323 323 323 323 323 320 320 319 319 319 319 320 319 319 320 319 319 318 319 318 319 318 317 318 318 319 315 313 316 313 314 322 322 321 321 320 321 320 313 316 321 321 323 323 323 324 323 324 323 324 325 330 335 334 333 334
298 298 298 299 300 300 300 300 301 301 302 304 309 312 314 315 317 317 314 314 315 316 317 320 319 321 325 325 324 323 322 323 323 323 322 322 322 321 321 319 319 318 317 318 318 318 319 319 319 318 318 318 318 318 317 315 315 319 316 310 312 313 314 318 321 321 321 320 322 319 316 317 320 321 322 323 322 323 324 324 324 324 325 326 332 333 332 332
298 298 298 299 299 300 300 300 300 301 302 305 312 314 316 317 318 318 316 315 316 316 318 323 324 324 326 326 324 323 324 324 323 323 323 322 323 321 321 319 319 319 318 317 317 318 318 318 318 317 317 317 317 317 314 310 309 314 316 313 314 315 314 314 318 322 322 320 322 321 320 319 320 321 320 321 322 323 322 323 324 324 325 328 331 332 331 333
297 298 298 299 299 300 300 300 301 301 302 307 313 315 317 320 320 319 320 321 320 321 322 323 325 324 325 326 325 325 325 324 324 323 322 322 322 321 321 320 319 319 318 317 317 317 317 317 317 317 317 317 317 317 311 309 310 311 313 312 313 315 315 315 317 321 322 321 320 321 320 319 320 321 321 321 322 323 323 324 324 323 325 329 331 331 330 331
297 298 298 299 300 300 300 301 301 302 303 309 314 317 320 323 323 322 323 325 324 327 330 328 326 325 324 325 326 326 324 324 323 323 323 321 321 321 321 321 319 319 318 317 317 317 317 317 316 315 315 316 318 317 315 315 316 315 315 314 312 312 313 316 319 322 322 320 320 320 319 320 321 320 321 322 322 322 323 324 324 323 324 326 329 331 329 331
297 297 298 299 300 300 301 301 302 304 306 310 315 318 320 320 321 323 321 320 320 324 325 323 324 324 323 324 324 324 324 323 323 323 323 322 320 321 321 320 320 319 318 318 318 318 318 317 317 315 316 318 319 319 319 319 319 319 318 315 314 312 312 318 320 320 322 319 318 320 319 320 321 321 321 321 322 322 321 324 324 323 325 326 329 329 330 333
297 298 298 299 300 301 301 302 303 307 308 311 316 319 317 314 315 317 316 315 316 318 319 319 320 321 321 322 323 324 323 323 323 322 323 322 321 321 319 320 319 318 319 319 319 320 319 317 317 319 320 320 319 320 320 319 320 320 317 315 313 313 314 319 320 320 321 318 317 320 319 320 321 321 322 322 322 322 322 324 324 324 326 327 328 327 329 332
297 297 297 298 300 300 301 303 306 308 309 313 318 317 313 314 314 315 315 315 317 318 319 320 320 320 321 322 322 322 323 322 323 322 323 321 320 320 320 320 319 319 320 319 320 320 319 318 319 321 321 321 321 320 320 320 320 319 317 314 311 313 315 317 320 321 321 318 317 320 318 318 321 321 322 322 321 323 322 322 323 326 327 326 326 327 330 329
297 296 297 298 299 300 301 303 308 312 313 316 318 315 313 313 314 315 315 315 317 319 319 320 321 321 321 322 323 323 321 322 321 322 323 322 321 321 321 320 320 320 320 321 321 318 316 318 322 321 321 323 322 321 321 320 319 318 317 312 310 315 314 312 317 320 321 319 318 321 318 319 322 321 321 323 323 322 323 322 323 325 326 326 324 327 327 329
296 296 297 297 299 301 301 304 312 313 313 315 315 314 313 312 314 315 315 317 318 319 322 323 323 323 322 322 322 322 321 321 321 322 323 322 321 320 320 321 321 321 322 321 322 320 318 321 323 323 323 323 322 322 322 318 317 318 318 314 313 317 316 314 318 320 319 320 320 319 314 314 320 321 321 323 324 324 323 324 324 324 325 325 326 329 328 331
296 296 296 297 299 300 301 310 314 310 311 315 315 315 312 311 314 315 317 321 321 322 324 324 323 323 323 323 322 322 322 321 322 323 324 323 322 322 321 322 321 322 323 323 322 322 322 323 324 324 324 323 323 321 322 319 315 316 319 319 318 319 320 319 320 318 314 313 318 318 309 310 318 321 323 324 323 323 323 324 324 325 325 326 326 329 328 328
296 296 296 297 298 299 305 314 310 308 314 316 314 313 311 312 314 315 320 326 325 326 324 323 323 322 322 323 322 322 321 323 323 323 324 323 323 323 322 323 323 322 322 323 323 323 324 324 323 325 324 324 323 321 322 322 314 313 318 322 323 322 320 318 318 315 309 310 318 319 310 308 314 318 323 324 323 324 325 325 325 324 324 325 325 327 328 325
295 296 296 297 298 300 307 312 308 311 318 314 312 312 310 313 315 316 326 328 324 325 326 323 323 322 322 322 322 322 321 322 324 324 324 324 323 323 322 323 323 322 322 322 320 321 324 324 323 324 324 323 323 321 322 322 316 314 320 323 322 322 320 319 317 313 312 313 316 318 315 309 309 315 322 324 322 324 325 325 326 325 324 325 325 324 327 326
295 295 296 298 298 301 305 309 311 316 317 314 313 312 311 314 314 319 328 325 323 325 325 324 323 321 321 322 322 322 322 322 322 323 324 322 323 322 322 322 322 323 323 321 317 320 323 323 323 324 323 322 322 322 323 323 319 319 323 324 322 322 322 320 318 314 315 314 311 313 315 311 308 314 323 324 321 323 327 326 326 325 325 325 325 324 328 328
296 296 297 298 299 304 310 312 315 317 316 314 313 312 312 313 317 324 325 322 324 324 324 322 321 321 321 322 321 322 322 323 322 322 323 323 322 321 321 322 322 321 323 322 320 321 323 322 323 323 323 323 323 324 323 323 322 322 322 322 323 323 322 322 320 315 314 314 310 310 312 311 309 312 318 321 321 324 328 328 324 324 327 326 327 327 327 327
296 296 297 299 301 307 312 314 315 316 315 314 313 312 313 316 321 327 324 323 324 323 323 322 321 322 323 322 322 322 322 323 322 322 321 322 322 321 321 322 321 321 322 322 322 322 322 323 323 323 323 322 323 323 322 322 322 322 323 322 321 322 322 321 320 315 313 313 311 312 313 312 311 312 316 320 324 327 329 328 327 329 331 332 331 331 330 328
297 297 298 301 303 305 309 313 314 314 314 314 314 314 317 322 323 321 324 326 322 322 324 324 323 322 323 322 321 323 322 323 322 322 322 322 322 321 321 321 321 321 320 320 321 322 322 323 323 323 323 323 323 322 322 323 322 322 322 321 318 318 319 318 317 316 316 314 313 314 315 314 313 313 318 324 327 331 331 331 334 334 333 333 332 331 332 332
297 297 300 303 304 304 307 311 313 314 315 315 315 316 320 325 323 317 322 322 319 324 325 323 324 322 322 322 321 322 322 322 322 322 322 322 322 322 321 321 321 319 316 317 319 321 321 323 323 323 323 322 322 320 321 322 322 323 321 317 315 314 316 316 315 316 316 315 315 317 318 319 318 319 323 328 330 332 334 334 335 334 333 332 331 330 331 331
298 299 303 306 307 309 311 313 314 315 316 317 317 319 320 322 322 319 320 320 321 326 324 322 324 321 320 320 320 322 321 322 321 321 321 321 322 323 322 322 323 320 317 317 318 317 318 323 325 324 323 323 323 320 317 319 320 322 318 316 315 315 318 320 318 317 318 317 317 320 319 318 319 324 326 327 329 332 335 335 334 334 333 333 330 328 329 330
298 301 309 311 312 315 317 316 317 317 317 317 318 321 320 320 321 319 320 321 323 323 322 321 321 320 320 319 319 320 320 321 321 320 321 321 320 321 321 322 323 322 322 319 318 316 316 319 322 324 323 324 325 322 320 320 320 322 322 320 317 316 319 321 318 317 318 318 318 320 320 317 320 328 328 324 329 332 333 334 335 334 333 332 331 328 329 330
299 305 313 315 316 319 319 317 317 316 316 318 319 320 321 320 320 319 320 321 321 321 320 319 320 319 318 318 319 319 319 320 320 320 320 319 318 319 321 323 323 324 323 319 318 318 316 316 321 324 324 323 325 323 323 323 320 322 323 320 316 317 318 318 318 318 317 319 318 317 318 319 325 331 328 326 328 329 331 333 333 333 332 332 332 331 330 330
302 309 315 318 319 317 316 315 316 315 316 319 319 318 319 320 320 320 320 319 319 319 318 319 319 316 315 317 318 318 318 318 318 318 317 318 319 319 322 324 323 323 323 321 320 319 315 316 322 324 324 324 324 323 324 323 319 321 320 316 319 322 321 316 316 318 317 319 319 316 316 318 320 327 328 329 330 329 330 331 332 333 333 333 333 333 332 330
306 312 317 319 316 312 313 315 315 315 315 319 320 319 319 319 320 319 318 317 317 318 318 317 317 316 314 315 317 319 318 318 318 318 316 317 316 318 322 324 323 322 323 322 321 321 317 315 320 323 322 324 323 323 324 323 321 320 317 318 321 321 320 317 316 316 317 319 318 314 315 316 316 322 329 330 330 331 330 330 331 332 331 332 332 333 332 330
307 313 318 319 315 311 312 314 315 316 315 317 318 319 318 317 318 317 316 316 316 317 317 315 316 316 315 313 315 320 319 317 318 318 316 315 316 320 322 322 322 322 321 322 321 322 319 314 318 323 323 323 323 322 321 322 323 321 320 321 319 316 315 315 316 317 317 319 318 315 315 314 315 321 330 331 331 331 329 329 330 330 330 331 330 330 330 331
309 315 319 318 314 311 312 313 315 316 316 317 317 316 316 315 315 316 315 315 315 316 316 315 315 315 315 315 316 320 319 316 317 318 316 315 317 321 322 321 322 322 320 321 320 321 320 316 317 322 322 321 321 319 316 318 322 321 320 320 318 317 315 315 316 316 315 317 318 317 315 313 318 326 331 333 334 332 329 328 328 328 328 329 328 328 328 328
312 316 317 316 313 311 310 312 314 316 317 319 317 316 316 315 315 314 314 314 314 314 314 315 316 315 316 318 318 320 319 317 318 318 317 316 317 320 320 319 321 321 320 319 319 319 319 318 317 320 321 319 316 318 319 318 320 318 315 315 316 319 318 317 316 313 314 317 318 320 318 315 321 330 331 332 333 330 329 329 329 328 328 328 329 330 330 329
314 318 317 314 312 311 309 310 314 315 317 318 317 316 316 315 316 315 314 314 313 313 313 312 314 314 315 317 318 319 320 320 319 318 317 317 316 315 318 320 319 319 319 318 317 318 318 317 315 315 316 314 315 320 321 320 320 318 315 314 316 319 318 317 315 313 312 313 314 318 318 317 324 330 327 331 331 327 327 329 328 327 327 329 331 331 332 332
314 318 315 312 311 310 309 310 314 316 317 318 318 317 316 315 315 315 315 314 313 313 313 313 314 314 315 315 316 317 318 317 318 318 317 318 317 316 318 319 318 317 318 316 315 318 319 319 318 316 316 316 318 319 318 318 318 316 317 318 320 320 317 313 313 311 309 309 310 312 313 317 326 328 326 328 328 325 327 327 326 325 325 327 329 328 330 331
312 313 311 312 311 309 310 311 314 315 317 318 318 317 316 315 315 315 314 314 314 313 314 314 315 315 316 316 316 317 317 316 316 316 317 317 315 317 318 318 318 317 316 316 316 318 320 320 318 319 318 317 317 317 315 315 314 314 314 316 318 318 316 314 313 312 313 314 314 315 315 316 322 326 327 327 328 326 326 325 325 326 327 326 325 325 326 328
309 310 313 314 312 309 311 313 314 315 317 318 318 318 318 317 317 316 315 315 315 315 316 316 317 318 317 317 317 318 318 319 318 316 317 317 316 318 319 318 317 317 317 319 320 319 320 319 318 317 317 316 315 314 314 315 315 314 315 317 319 319 319 319 317 317 320 318 317 319 317 316 319 325 327 328 328 326 325 325 324 325 325 324 323 324 324 325
309 312 314 315 313 312 312 313 313 314 315 315 315 316 316 318 318 317 316 316 316 315 316 317 317 317 317 317 318 319 319 320 319 319 317 317 317 317 318 318 317 316 317 320 321 319 320 321 319 319 319 317 315 313 314 316 317 317 318 320 321 321 321 321 318 319 321 319 317 318 317 317 320 322 323 324 326 325 325 325 323 323 324 324 325 326 325 325
311 314 314 315 315 314 314 314 314 315 314 315 315 315 314 315 316 315 316 317 316 315 316 315 315 315 316 316 317 318 319 318 319 319 317 317 317 316 316 318 316 317 318 319 318 317 318 320 320 319 319 318 315 315 316 317 316 317 319 319 319 320 321 320 319 319 320 319 318 318 317 317 320 320 321 321 321 322 323 322 320 321 322 322 324 325 324 323
313 315 314 314 313 312 312 314 316 316 316 316 316 316 315 315 315 315 316 317 317 316 315 315 315 316 316 317 317 318 317 317 317 318 318 317 317 315 316 315 316 320 321 318 315 316 317 318 318 317 317 316 315 315 317 318 317 317 317 318 318 319 319 319 319 319 319 319 319 319 318 317 318 319 319 319 319 320 319 318 318 319 319 320 319 319 319 321
312 313 312 312 311 311 312 312 313 314 314 315 315 314 314 314 315 316 316 316 316 315 315 315 315 315 315 315 317 317 317 316 316 317 317 317 317 317 317 314 316 322 321 316 314 316 316 316 316 315 315 315 315 316 316 317 317 317 317 317 317 317 317 317 317 317 317 318 319 318 318 318 318 317 317 317 318 318 317 318 318 317 317 317 317 317 318 319
310 311 311 311 310 310 311 311 311 311 312 312 312 311 311 312 313 314 315 315 315 315 314 315 315 314 314 315 315 316 316 317 317 317 317 317 318 319 319 317 316 318 318 316 316 317 316 316 316 315 315 315 315 316 316 316 316 316 316 316 316 316 316 316 316 316 316 317 317 317 317 317 317 317 316 317 317 316 316 316 316 315 316 316 317 318 319 319
308 308 309 308 308 309 309 310 311 312 311 311 311 311 311 312 312 313 313 314 315 314 314 315 315 314 314 315 315 315 317 318 319 319 318 318 318 318 318 318 316 315 315 316 317 318 316 315 315 316 316 316 315 315 314 314 314 314 314 314 314 315 315 315 316 317 317 316 315 316 316 316 316 316 315 316 316 315 314 315 315 315 315 316 317 317 317 318
305 306 306 306 307 308 308 309 310 311 311 312 312 312 312 312 312 312 312 312 313 313 313 313 314 314 314 315 316 316 316 316 316 316 316 316 317 316 316 316 315 315 315 315 317 318 316 315 315 315 316 316 315 313 314 313 313 313 313 313 313 314 314 314 315 315 316 316 315 315 315 315 315 315 315 314 315 314 313 313 314 315 314 315 316 317 317 317
303 304 305 305 306 308 307 308 309 310 311 312 312 312 311 311 310 310 311 311 310 311 311 312 313 313 313 315 315 314 314 313 313 312 312 313 314 314 314 314 314 314 314 314 315 314 314 315 315 315 316 316 314 313 313 313 313 313 313 313 313 313 314 313 314 314 315 314 315 315 314 314 315 314 313 313 314 313 313 313 313 314 315 316 316 316 316 315
Wind_Speed
20 19 19 19 20 20 21 21 22 23 23 23 23 23 22 20 19 18 19 19 20 20 19 18 18 18 17 16 16 16 18 17 14 13 14 15 13 5 4 13 10 8 8 9 11 11 8 9 10 10 11 8 5 4 4 4 5 3 4 2 3 5 4 4 6 4 4 6 5 6 8 6 8 4 3 4 3 3 5 1 10 11 6 7 13 17 20 20
21 21 20 20 20 21 22 22 23 24 24 24 24 24 23 21 20 19 20 20 20 20 20 19 18 17 17 17 16 16 17 17 15 17 19 17 15 12 8 8 8 8 9 11 12 13 11 7 8 8 8 6 3 4 5 4 3 4 5 1 3 6 2 0 5 5 2 6 6 5 8 7 8 6 1 5 2 5 5 6 10 5 3 8 13 15 17 18
23 22 21 21 21 22 22 23 24 25 25 25 25 24 24 22 21 21 21 21 21 21 21 20 18 17 17 17 16 15 15 15 15 16 20 19 15 12 10 10 10 10 12 14 12 13 10 4 7 8 8 7 3 3 5 5 5 5 4 3 5 5 4 3 3 5 5 6 9 7 7 8 8 7 5 5 6 6 2 5 5 8 10 9 12 14 15 15
24 24 23 22 22 22 23 24 25 26 26 26 26 25 24 23 22 22 21 22 22 22 21 18 17 15 15 15 15 12 11 12 9 4 13 17 13 11 11 11 11 11 12 13 13 13 11 8 7 8 9 8 4 3 4 6 6 4 4 6 7 7 8 5 3 5 8 6 8 9 7 8 9 7 7 7 8 5 3 0 2 9 13 12 13 13 15 14
24 24 24 23 23 23 24 25 25 26 27 27 27 25 24 24 24 23 22 22 22 22 20 17 15 14 13 13 12 9 8 6 2 9 13 13 11 11 11 12 11 11 12 12 14 13 11 8 7 8 8 7 5 5 6 7 5 3 6 8 8 4 9 8 7 6 7 5 7 9 10 9 8 8 9 9 9 5 1 1 5 11 12 13 13 12 13 12
24 25 25 25 24 24 25 26 26 27 27 28 27 25 24 24 25 24 23 22 21 20 19 17 14 12 11 11 10 6 6 3 3 11 12 10 11 11 11 12 11 11 12 13 13 11 9 9 9 8 7 9 7 3 4 6 3 4 8 9 9 6 8 9 7 8 7 7 10 9 9 9 9 10 9 9 9 8 6 2 9 12 12 14 13 12 13 12
25 25 26 26 26 25 26 27 27 28 28 28 27 26 24 24 25 24 24 22 20 19 17 16 13 11 10 9 7 5 9 10 5 13 13 11 11 11 11 12 11 10 13 14 13 10 9 10 10 8 8 9 8 4 2 3 4 5 8 10 11 7 6 9 8 9 8 10 11 9 10 10 11 10 7 9 9 7 8 3 8 11 11 15 12 9 9 10
26 27 27 27 27 27 27 27 28 28 28 29 28 26 25 24 24 24 23 22 20 18 17 15 12 9 7 6 6 7 9 9 10 16 13 12 12 12 12 12 13 12 13 15 13 11 10 10 11 8 9 7 4 6 3 4 8 9 10 11 9 7 8 10 11 11 11 10 10 11 10 10 11 10 10 9 8 8 9 3 7 8 5 10 12 8 5 7
27 27 28 28 28 27 27 28 28 29 29 29 29 27 25 24 24 23 22 21 19 17 16 15 12 8 6 5 7 9 4 7 15 15 13 14 13 14 15 13 14 15 14 15 14 13 10 9 9 6 8 10 8 8 8 7 7 6 8 10 10 11 11 13 12 12 11 9 10 10 10 10 11 12 10 6 6 8 8 5 6 5 3 9 12 11 7 7
27 28 28 29 28 28 28 28 28 29 29 29 28 27 26 25 24 23 21 21 18 15 15 14 12 7 6 7 8 9 2 12 12 12 14 15 15 16 17 15 15 16 15 14 15 14 12 9 9 8 8 9 9 10 9 9 9 9 10 10 12 14 13 13 13 14 13 10 10 9 10 10 11 12 6 5 6 4 6 5 7 7 5 10 8 9 8 5
28 28 29 29 29 29 29 29 29 29 28 28 28 26 26 25 23 23 21 19 16 14 14 14 11 7 8 9 9 6 5 11 10 13 15 16 17 18 19 18 16 17 16 14 15 13 13 11 8 7 6 6 8 11 9 7 10 12 12 11 14 16 15 15 15 16 12 9 7 6 9 11 12 11 5 6 6 3 4 8 5 8 8 10 8 8 8 7
28 28 29 29 29 29 29 29 29 29 29 28 27 26 26 25 23 23 21 17 13 12 12 13 10 6 8 9 11 11 5 5 8 12 14 15 16 17 17 18 16 17 16 14 14 13 14 13 9 8 8 8 10 10 8 9 11 13 12 11 15 16 16 17 16 14 11 8 4 1 8 12 11 9 7 8 4 1 5 9 6 7 8 11 11 9 9 8
28 28 29 30 29 29 29 29 29 29 29 27 26 26 25 24 23 23 20 15 11 10 11 12 7 6 7 7 12 14 9 6 7 10 12 14 14 14 15 16 17 17 17 16 15 13 12 10 9 11 11 10 10 10 12 14 13 13 12 11 13 12 14 17 16 14 12 7 4 3 6 8 8 5 1 5 4 4 7 8 7 7 7 9 12 10 9 9
28 29 29 30 30 30 30 29 29 29 28 27 26 25 23 23 24 21 17 12 9 8 9 9 5 5 6 9 14 11 7 6 7 10 12 14 14 14 15 16 17 17 16 17 17 14 10 6 8 11 10 11 11 12 14 13 11 11 12 10 9 9 11 11 8 12 11 6 6 7 6 7 9 4 3 4 5 7 8 7 7 6 6 8 13 10 9 10
29 30 30 30 30 30 30 30 30 29 28 27 26 24 22 23 22 18 14 10 7 7 8 8 5 5 6 12 14 9 10 10 11 13 13 15 15 14 15 16 16 15 15 16 16 13 9 8 9 9 9 11 13 13 12 10 9 10 10 8 7 8 10 7 3 9 9 5 8 8 6 7 11 7 7 10 10 10 8 6 6 6 6 8 12 10 8 10
30 31 31 31 31 31 31 31 30 29 27 26 25 23 22 22 20 16 12 8 7 6 5 6 8 10 7 6 3 6 11 13 14 15 15 16 16 14 14 14 14 14 15 15 14 13 11 9 9 9 10 12 11 10 10 8 8 8 8 8 7 8 9 5 6 11 10 6 6 8 7 7 9 10 7 6 11 13 8 5 6 7 7 7 9 10 9 9
31 32 32 33 32 32 32 31 31 29 26 25 24 24 22 19 17 14 10 7 7 7 7 9 9 9 8 6 4 6 12 14 13 14 16 17 16 16 14 12 11 13 14 14 13 13 11 8 7 9 9 9 9 9 9 8 7 7 7 8 8 8 10 5 5 8 8 8 8 8 8 8 9 10 11 12 13 13 7 8 7 7 6 5 7 9 9 8
32 32 32 33 32 33 32 31 32 28 24 24 23 26 22 13 13 11 8 5 5 7 10 11 10 6 6 9 10 9 8 11 11 12 15 16 16 17 15 12 10 10 12 11 12 12 9 8 7 8 8 8 9 8 8 9 9 10 8 8 9 9 11 9 4 5 6 8 9 7 6 9 11 12 13 14 13 9 8 8 6 5 5 5 7 8 7 8
32 32 33 33 33 33 31 32 31 25 23 22 22 25 17 8 7 5 5 5 5 5 6 5 7 7 6 8 11 9 3 5 8 9 14 16 15 16 16 12 9 10 10 8 10 11 9 7 8 8 8 9 11 11 11 13 14 15 14 11 12 10 11 12 11 11 12 12 10 7 7 10 12 13 14 13 13 12 8 10 7 5 6 5 7 8 6 7
31 32 33 33 33 32 31 31 27 21 20 23 26 22 10 6 4 1 3 8 9 11 13 9 10 12 12 12 9 1 3 4 7 9 13 15 14 14 14 11 9 10 10 9 9 10 9 8 9 9 11 12 14 15 15 16 17 17 15 13 13 12 11 13 14 14 13 12 12 12 11 10 12 13 14 13 11 12 13 10 8 8 7 5 6 8 8 7
31 32 33 33 33 32 31 30 22 16 18 22 24 15 5 8 7 5 9 11 13 15 18 18 17 17 16 16 12 3 1 7 9 10 12 14 14 12 10 10 11 9 10 13 11 9 10 10 10 12 15 16 16 16 15 16 17 15 12 11 12 11 11 13 13 13 13 11 11 15 13 10 13 14 13 14 12 11 13 12 9 9 7 5 7 9 9 8
31 32 33 33 33 32 31 27 17 13 17 17 14 7 7 8 6 7 9 10 14 16 17 19 20 18 17 18 17 12 10 9 9 11 12 14 13 10 9 10 11 10 10 12 10 8 9 10 14 16 15 15 15 15 16 17 15 12 10 10 10 10 11 13 13 13 12 9 10 13 12 10 13 14 13 13 12 11 9 14 14 7 8 7 7 7 7 8
31 32 33 32 33 32 30 24 14 11 14 13 10 9 9 8 7 10 9 8 14 16 15 16 16 15 15 16 16 14 12 11 11 11 14 15 12 11 10 10 12 11 11 12 10 9 8 10 16 18 16 15 14 14 15 14 11 10 9 9 9 11 11 9 10 13 13 10 10 10 9 9 11 12 13 13 13 11 9 13 16 7 8 6 7 7 8 9
31 32 32 33 33 32 30 22 12 11 13 12 7 8 9 10 10 12 9 7 10 12 12 11 11 11 7 3 6 11 11 11 11 12 14 16 11 11 11 11 12 11 11 14 14 13 12 13 15 17 16 14 12 13 14 10 8 10 11 11 10 13 14 10 10 14 14 14 13 11 8 8 10 12 11 9 9 10 8 10 10 3 5 3 6 7 7 7
31 31 31 32 31 31 30 17 9 16 18 12 6 8 12 11 11 12 8 6 6 7 7 6 5 5 2 6 5 7 9 10 11 13 14 18 13 10 10 9 9 11 13 16 16 13 14 16 16 17 17 15 11 11 13 10 8 10 11 13 14 15 15 13 13 12 10 9 10 11 9 6 9 11 7 4 8 12 8 7 10 5 4 7 8 7 6 6
31 30 31 30 29 32 25 8 11 23 18 8 10 13 14 11 12 11 5 5 4 3 6 6 5 3 3 5 7 6 9 9 9 11 11 17 16 10 9 8 7 11 13 12 11 8 10 15 16 16 17 16 14 11 11 11 9 8 10 14 16 15 14 13 13 11 7 8 9 11 10 6 6 9 8 5 8 13 10 7 9 8 4 6 8 8 8 7
31 29 30 29 26 29 19 7 17 22 10 8 14 16 13 11 12 9 3 4 4 2 6 5 4 4 3 6 8 6 4 1 5 9 8 12 15 10 9 10 8 9 9 7 7 6 9 14 15 15 15 14 13 9 9 11 10 8 11 14 14 14 14 13 13 10 8 9 11 12 12 8 6 9 11 7 7 12 11 5 4 7 8 8 8 8 9 8
31 29 29 28 24 20 13 12 18 15 8 13 17 15 13 13 12 6 4 3 2 1 2 3 3 4 4 5 8 9 2 2 4 7 6 10 10 8 9 12 12 12 11 8 8 9 11 15 16 15 14 11 11 11 11 13 12 11 13 13 13 14 14 14 13 10 10 10 9 11 12 9 7 8 9 6 8 10 6 1 2 7 8 5 5 5 6 5
31 29 28 28 24 12 8 13 14 12 13 16 16 16 15 13 9 4 3 3 2 1 1 1 3 5 6 5 9 10 6 7 6 5 6 8 8 8 8 10 12 14 15 14 13 11 10 14 16 14 11 9 10 12 13 14 12 11 13 13 14 14 13 13 11 10 10 10 9 11 12 9 7 7 7 5 4 4 5 2 5 5 7 5 6 7 4 5
31 29 27 28 23 13 10 12 11 12 15 15 16 17 15 10 5 4 3 2 3 2 1 2 2 3 6 7 9 11 11 10 6 7 6 6 8 10 8 8 9 10 13 15 16 15 13 15 14 10 9 9 11 12 13 14 13 12 12 12 13 13 12 11 10 10 9 8 10 13 14 12 8 6 5 7 2 2 2 2 3 8 14 14 12 13 11 5
31 29 25 24 20 14 12 9 7 13 15 16 18 15 10 5 3 4 2 2 4 3 2 3 2 1 5 8 8 8 10 9 6 7 7 6 8 9 7 8 7 7 9 10 12 15 16 14 12 10 9 10 12 13 14 14 14 12 10 10 10 9 9 9 8 8 7 7 10 13 13 11 7 4 4 7 6 3 1 7 12 13 16 16 14 14 15 12
31 28 22 17 14 12 10 9 13 17 15 16 15 9 5 3 4 5 4 4 4 1 3 4 1 2 5 8 8 8 9 7 6 7 7 8 7 8 10 8 6 7 8 7 8 11 12 12 11 12 12 13 13 10 10 12 12 12 10 9 9 7 6 7 6 6 6 7 9 9 10 7 4 4 5 2 6 10 10 12 13 14 14 13 12 12 11 12
30 26 18 11 9 10 11 13 15 16 15 15 10 4 3 3 4 5 7 6 3 1 3 7 6 5 6 7 10 12 9 6 7 8 8 9 8 9 11 12 12 10 6 5 7 6 7 9 9 11 9 7 9 8 6 8 9 9 8 6 7 7 5 6 7 6 6 7 6 9 9 7 2 4 7 3 11 14 12 12 13 13 13 11 11 12 10 11
30 22 14 9 9 10 11 12 12 12 14 11 6 3 3 5 4 6 8 8 5 4 6 9 9 8 8 9 12 13 8 6 9 9 8 8 8 8 9 12 15 11 6 6 7 6 7 7 6 7 5 5 10 11 8 8 10 9 8 7 7 5 4 5 6 6 7 7 6 7 6 4 2 4 8 4 9 13 12 11 11 12 12 11 11 12 12 12
28 18 13 13 11 9 8 10 10 10 10 7 4 4 5 4 5 7 6 5 7 8 10 12 11 9 11 9 12 15 8 5 7 8 8 8 8 7 5 5 3 1 4 5 4 5 8 8 6 7 8 6 9 12 9 8 9 7 7 7 7 6 5 5 6 8 9 8 7 6 5 4 4 6 5 4 5 9 11 10 11 13 12 11 11 11 11 10
27 19 13 11 8 4 5 7 7 7 7 6 4 5 6 5 6 7 3 5 7 8 10 12 9 9 10 6 10 11 2 4 8 8 7 8 11 10 1 5 5 3 2 3 3 4 6 8 8 10 13 11 10 12 10 6 5 5 6 7 6 8 8 6 6 7 9 8 6 5 7 7 6 4 1 3 4 9 11 10 11 12 12 11 9 8 9 9
26 19 14 10 4 3 4 5 6 6 6 5 5 5 6 6 8 8 5 7 8 8 8 8 6 8 9 6 9 5 5 2 8 6 6 7 9 9 2 4 1 2 3 2 3 5 6 8 9 12 15 10 9 13 12 9 8 7 7 7 8 10 9 6 5 5 7 7 5 6 10 9 6 3 2 5 7 10 9 8 9 10 10 9 8 8 9 9
21 14 12 9 4 4 5 5 6 7 5 5 7 7 7 8 11 10 5 7 8 8 8 7 5 7 9 8 10 7 4 2 5 4 5 7 4 4 4 2 3 2 4 4 4 5 7 8 9 12 14 10 10 13 12 11 12 11 10 10 8 7 7 5 4 5 7 7 6 8 11 10 6 2 3 6 8 7 6 6 7 8 9 8 7 8 9 8
16 10 5 2 0 5 5 5 6 6 5 5 7 6 6 9 11 7 5 6 6 6 6 7 6 7 9 9 10 11 9 7 7 6 5 5 2 1 4 4 2 1 2 5 5 5 6 7 7 9 11 12 10 9 9 8 9 10 12 12 8 5 7 6 5 6 7 7 7 8 9 7 2 2 6 8 7 6 5 3 3 5 7 6 7 7 7 8
11 6 0 3 3 6 6 6 6 5 6 7 7 7 8 9 8 2 6 4 4 5 6 7 7 7 8 9 9 10 10 9 8 7 6 7 6 3 1 2 3 2 1 4 7 6 6 7 7 7 9 11 8 6 8 8 7 9 10 10 7 5 7 7 6 7 7 6 6 6 7 5 2 4 6 7 7 7 7 5 4 5 6 6 7 6 6 7
8 4 1 3 5 6 5 6 5 4 6 7 8 10 7 5 8 6 3 2 3 4 7 9 9 8 8 9 9 7 8 9 8 7 7 7 8 5 1 4 1 4 3 4 7 5 4 6 7 7 8 10 9 9 11 13 13 11 7 7 6 5 6 7 6 7 6 7 6 6 7 5 2 3 4 6 8 7 6 6 5 7 8 8 8 6 5 5
6 4 3 5 6 6 5 5 5 5 6 7 8 11 5 2 7 10 7 7 6 5 7 8 8 9 7 8 9 9 9 8 8 8 7 8 10 7 1 6 3 3 4 6 8 5 3 4 7 7 8 10 13 13 14 16 16 12 7 7 8 6 6 6 6 6 7 9 9 8 8 4 5 5 5 7 7 7 7 4 2 2 6 6 8 7 5 4
4 7 9 6 4 4 5 4 6 6 6 8 10 11 8 5 7 9 8 9 8 6 7 6 6 7 7 7 8 9 9 8 9 11 9 11 11 4 4 5 4 3 4 7 7 6 5 3 7 8 9 11 15 17 17 17 15 11 9 9 9 9 10 9 9 7 6 8 8 7 7 4 2 2 4 6 2 0 2 4 6 4 4 4 5 7 6 4
5 8 7 3 0 3 5 4 5 5 6 9 9 9 8 6 7 8 8 9 8 7 7 6 7 7 6 8 8 8 9 6 7 10 10 12 7 3 5 4 4 2 3 4 5 5 3 5 7 8 8 8 10 12 12 12 10 8 8 7 8 12 13 11 8 6 5 8 9 8 7 6 5 2 4 8 4 1 2 3 8 6 4 5 5 6 6 6
6 5 4 4 4 3 5 4 6 7 8 11 11 11 10 7 9 9 8 8 9 9 8 6 8 9 9 9 8 9 9 7 8 9 9 12 8 1 2 2 1 2 3 10 10 5 4 6 6 7 8 8 7 6 2 2 5 5 5 8 10 12 12 9 6 5 6 8 10 9 8 8 8 7 5 4 4 5 4 5 8 8 5 4 4 3 5 5
5 3 3 2 3 3 5 5 5 5 6 8 8 9 10 8 9 9 7 7 7 8 9 8 9 10 10 10 9 9 10 10 11 10 10 12 9 8 7 3 4 3 7 8 5 3 3 6 8 10 11 9 10 8 7 8 8 8 8 10 12 12 12 8 5 5 7 8 9 10 11 11 11 10 11 11 9 6 6 7 8 9 7 4 5 5 4 4
3 3 5 4 3 5 5 4 3 3 5 7 5 7 10 10 9 8 6 4 4 6 7 7 8 9 9 10 10 9 11 13 13 13 14 14 12 14 14 9 8 7 10 7 5 2 4 8 10 14 15 15 16 17 16 13 11 12 12 13 13 13 13 10 8 8 8 8 8 10 12 12 11 12 12 13 13 12 12 12 12 12 11 10 10 10 8 5
4 4 5 5 3 6 6 8 10 9 10 10 7 8 11 12 11 9 7 6 6 8 6 5 8 11 11 12 10 9 10 13 13 14 15 13 12 14 14 14 13 10 12 8 6 5 5 9 10 15 17 17 17 17 17 15 13 14 15 16 15 15 14 13 12 13 12 9 10 13 15 14 14 15 16 14 13 14 15 13 12 14 14 12 12 12 11 8
5 4 5 7 5 7 10 11 11 11 11 10 7 8 10 12 12 10 8 8 8 10 9 8 9 11 12 13 12 11 10 11 10 10 11 11 11 11 10 13 13 8 9 8 6 5 6 7 9 13 15 17 17 16 16 15 15 15 17 18 18 17 16 15 15 16 15 15 16 19 21 19 16 16 17 15 13 14 15 12 12 15 13 11 10 9 11 11
5 4 5 7 6 7 9 10 9 8 8 8 7 8 9 10 11 9 8 9 9 10 11 13 13 12 13 16 15 11 9 11 9 8 11 12 10 9 7 9 11 10 9 8 6 5 4 5 8 10 12 15 17 15 15 15 15 17 19 20 20 18 17 16 15 14 13 15 18 19 20 18 14 13 15 14 12 13 14 11 12 13 9 6 8 8 9 10
7 6 5 5 6 6 7 7 7 6 7 6 6 7 8 9 10 10 9 9 10 10 10 14 16 11 10 14 15 10 11 13 14 13 12 12 11 10 7 8 11 12 9 7 4 1 3 4 7 8 9 13 14 14 16 16 17 19 21 21 19 17 15 15 13 12 13 14 16 16 16 13 10 10 12 13 13 14 14 11 11 11 7 6 8 8 8 9
10 8 6 5 5 6 7 7 7 7 6 6 5 6 8 10 10 11 9 8 9 9 7 11 14 10 8 12 11 10 12 13 14 15 12 11 14 13 10 11 14 12 8 8 7 5 5 5 6 8 9 11 14 14 15 15 14 15 15 15 16 16 16 16 15 16 16 14 12 11 11 11 11 12 12 13 13 13 13 11 10 8 7 7 8 8 10 11
Wind_Direction
9 6 4 3 1 -0 358 356 355 353 351 349 347 346 345 342 338 332 329 326 323 319 313 310 305 303 300 299 302 306 313 312 300 267 246 248 247 269 198 193 219 241 250 246 237 248 217 218 231 212 226 217 222 236 151 231 253 229 241 261 307 285 278 311 300 302 340 306 308 322 326 323 301 8 76 274 251 269 289 5 62 51 21 67 112 126 135 145
8 5 3 1 360 358 357 355 353 351 349 346 344 343 343 340 337 331 327 325 322 319 315 311 307 305 300 296 300 306 314 306 282 262 251 245 238 238 225 213 237 239 228 228 230 231 211 194 203 206 228 228 209 179 161 211 226 235 259 265 262 267 253 325 281 270 276 298 323 306 296 312 320 349 225 257 258 240 293 72 88 91 121 111 124 134 143 151
8 6 4 2 359 357 356 354 353 351 348 345 342 340 339 338 336 330 326 324 321 320 315 311 308 306 301 297 301 308 314 300 275 259 245 230 219 222 231 235 234 232 220 222 235 233 239 251 192 205 243 237 201 176 189 192 189 213 249 245 245 291 301 241 245 307 339 324 315 298 313 328 299 298 278 294 312 276 2 85 139 159 157 145 143 146 155 163
8 7 5 3 0 358 355 354 353 350 347 344 341 338 337 336 334 331 326 323 321 320 316 313 309 305 303 298 303 314 307 286 278 226 197 198 202 213 221 223 217 221 222 230 253 254 267 282 219 224 257 248 207 216 238 194 189 205 225 268 314 346 293 287 36 323 321 329 314 311 310 290 274 295 301 298 300 298 74 10 230 152 155 157 158 161 166 174
7 6 5 3 1 359 355 354 352 350 348 344 341 338 335 334 334 331 327 324 321 321 318 315 311 305 302 298 305 316 296 282 88 118 151 175 192 202 202 207 208 212 218 232 254 261 258 253 243 251 263 257 211 202 237 208 195 258 255 269 301 302 271 317 11 302 309 324 290 279 270 284 311 315 297 291 299 318 36 182 123 130 153 162 166 168 174 181
3 3 3 1 359 357 354 353 351 349 347 344 342 338 335 333 332 331 328 325 321 321 319 317 316 306 299 299 305 293 264 292 122 144 151 164 180 187 189 197 203 208 219 233 246 251 241 235 241 245 254 272 268 228 216 219 204 251 260 266 267 257 277 317 323 298 312 292 272 274 285 308 308 294 297 300 301 313 303 218 124 125 144 161 171 168 178 187
360 359 359 358 356 354 352 350 348 347 346 345 342 338 336 333 331 331 328 325 322 320 318 317 318 306 299 300 298 242 236 273 229 154 150 159 172 183 187 193 202 211 225 238 244 238 228 237 245 250 259 266 283 288 191 241 272 257 265 273 271 273 298 305 293 288 282 273 279 284 287 291 286 288 292 278 271 282 290 276 117 124 145 156 158 155 185 197
358 356 356 356 354 351 349 347 345 344 343 343 341 339 336 333 331 329 327 325 322 319 316 316 317 306 298 292 275 247 250 249 174 150 154 161 165 181 185 192 203 212 227 234 237 235 232 243 252 267 277 274 313 308 292 288 259 241 253 265 279 292 292 285 280 284 285 283 278 269 276 286 289 286 276 279 290 291 286 277 113 121 150 137 126 134 223 240
357 355 354 355 353 350 348 345 343 341 341 341 339 337 335 333 332 329 327 325 321 318 317 316 312 298 279 265 262 277 289 136 147 154 163 162 165 178 184 194 201 208 224 232 234 237 242 248 261 295 311 301 317 307 290 287 270 256 276 290 303 296 285 282 280 279 273 270 275 279 281 278 280 279 273 275 271 274 276 238 138 132 130 111 125 152 195 248
356 355 353 353 352 350 347 344 342 340 339 338 337 335 333 333 331 329 326 324 321 316 318 319 310 287 256 246 256 278 118 127 148 161 165 165 167 174 188 201 200 206 222 232 234 238 247 264 296 323 321 295 296 297 280 274 289 300 299 298 292 285 282 279 275 269 261 258 267 270 274 280 283 281 282 283 249 231 280 258 161 163 145 121 138 157 167 211
355 354 353 351 350 349 347 344 341 339 337 336 335 333 332 331 330 328 325 322 318 313 316 320 309 276 254 255 262 277 129 141 159 163 170 169 168 177 194 205 200 207 221 232 234 240 255 274 309 306 288 299 300 289 277 281 297 301 303 296 282 279 275 266 260 261 259 258 262 261 277 278 272 267 235 265 278 143 260 276 204 186 171 142 153 163 166 192
354 353 352 351 350 348 346 343 339 338 336 334 333 331 330 328 327 325 323 319 311 308 313 316 309 264 262 267 253 253 230 187 176 169 179 177 180 189 196 204 206 210 220 234 234 236 254 267 286 282 277 302 301 289 305 321 307 296 296 287 275 272 265 257 250 253 249 240 245 266 285 272 261 260 203 208 269 341 254 267 252 215 190 158 161 178 176 190
354 353 352 351 349 348 345 342 338 336 335 333 332 331 327 324 325 322 319 315 305 302 306 312 306 249 257 266 251 249 243 228 199 184 189 188 197 201 200 208 213 216 224 240 243 242 258 259 262 275 282 287 289 298 311 309 299 290 282 273 275 277 269 255 233 230 237 227 217 230 275 278 276 291 169 162 180 256 262 254 247 231 214 162 159 181 177 184
353 352 352 350 349 348 345 342 338 335 333 332 332 329 326 323 322 318 313 307 298 296 299 305 287 238 240 257 266 256 225 231 221 206 202 200 207 206 205 211 218 225 229 243 255 267 291 295 270 270 276 279 282 290 291 287 284 282 275 268 267 268 275 271 219 201 214 193 187 234 268 278 281 283 161 175 199 238 259 264 262 238 221 162 156 176 179 189
353 352 350 349 349 348 345 342 338 335 333 332 332 329 325 322 318 316 311 299 291 289 290 293 252 227 255 259 262 240 211 235 235 220 211 206 212 211 206 210 221 229 234 242 254 267 277 279 273 267 269 269 269 273 275 274 270 266 268 267 261 263 276 284 201 182 201 197 180 213 263 274 277 268 197 194 209 224 229 244 267 260 234 178 162 167 186 198
352 350 349 348 348 347 345 342 337 335 333 332 333 328 325 320 313 311 309 294 278 270 274 273 219 215 264 287 257 207 212 233 234 223 216 211 215 217 208 211 224 228 236 241 247 258 257 254 261 265 271 271 268 273 273 271 269 264 260 261 263 275 289 274 190 181 189 209 208 225 265 271 275 293 288 244 211 211 229 246 228 237 244 209 174 164 189 198
350 349 348 346 346 347 345 342 338 336 333 334 334 328 326 317 303 302 306 295 276 257 244 261 252 228 251 281 278 239 224 226 227 217 212 210 214 221 213 208 221 226 231 235 238 248 248 245 254 257 258 258 259 268 275 275 274 273 263 267 274 273 292 295 178 181 186 201 226 242 258 267 276 287 286 273 239 216 237 273 244 227 228 206 188 180 193 188
349 347 346 345 345 345 344 342 338 336 335 335 335 329 326 314 300 301 294 279 259 247 239 252 269 257 241 251 251 258 242 208 204 209 207 206 211 221 225 216 213 220 227 230 231 234 237 242 248 256 255 250 250 245 252 261 262 277 284 291 301 293 297 303 251 251 263 243 237 230 244 267 275 275 269 274 277 256 219 226 243 247 235 202 192 194 202 192
347 346 345 344 344 344 344 342 338 339 337 335 341 336 329 321 304 274 254 258 227 241 258 223 211 236 295 286 248 252 282 165 177 212 205 201 208 217 229 229 214 220 228 226 221 219 224 241 238 246 254 248 252 246 248 259 264 278 288 289 297 300 297 298 290 289 298 295 288 272 272 279 280 287 288 294 305 300 255 212 208 225 236 218 196 190 198 208
346 345 344 342 343 343 343 342 340 345 339 333 338 336 331 344 330 201 307 295 261 264 280 267 231 245 278 284 259 158 79 162 199 230 210 197 205 215 226 228 220 225 231 234 229 215 213 235 240 239 248 248 252 252 253 263 268 275 284 286 290 292 286 287 288 290 294 296 291 281 279 282 286 287 284 282 281 279 273 250 212 200 214 213 201 195 194 208
346 344 343 341 341 342 342 343 341 348 347 334 328 330 12 13 350 343 332 301 274 269 270 269 260 259 264 267 274 311 268 231 217 222 210 195 201 214 214 215 226 227 225 236 245 232 217 229 243 243 248 251 254 261 262 263 268 275 284 289 288 285 282 281 279 280 282 277 276 279 275 272 281 283 279 282 281 273 283 282 239 192 190 203 202 203 197 204
345 344 342 340 340 340 341 342 338 342 349 338 328 352 36 16 348 329 319 296 286 276 265 264 260 259 259 259 264 266 265 250 223 218 203 190 199 212 202 201 223 236 226 231 242 246 236 232 242 247 251 257 259 264 266 266 275 286 289 286 281 278 280 279 272 266 263 260 263 268 271 281 284 284 283 281 278 271 280 289 275 218 171 193 208 208 200 206
345 343 341 340 340 338 339 340 332 332 337 334 351 20 14 355 340 323 305 286 289 280 261 251 246 244 245 246 240 236 244 241 236 228 194 185 200 211 219 216 220 237 239 233 232 236 246 243 242 241 239 247 257 262 263 265 273 273 267 270 274 277 279 278 276 273 272 278 282 273 268 274 272 270 271 264 262 256 230 249 261 221 156 187 216 211 206 206
345 343 341 339 338 337 339 335 326 337 328 317 354 26 359 346 341 333 314 273 278 284 268 242 230 234 235 218 194 209 232 231 237 237 192 184 205 207 223 240 229 233 240 242 245 243 248 254 258 260 258 257 265 274 273 268 265 262 258 261 266 273 275 277 288 294 296 298 301 296 275 262 259 254 257 271 291 289 256 243 256 211 127 219 243 217 213 210
345 343 340 339 339 337 337 333 335 341 327 320 9 11 349 346 342 337 322 277 263 264 250 221 205 215 143 104 148 206 237 227 227 240 201 183 204 215 218 237 241 242 241 240 249 254 254 255 259 267 273 271 261 264 273 272 272 270 263 265 270 275 277 279 285 287 288 284 282 281 272 267 271 264 264 297 302 295 291 283 289 290 179 202 230 218 218 231
344 343 341 339 339 338 338 345 344 332 319 338 14 348 337 343 340 336 313 273 266 212 182 184 189 179 147 169 189 217 241 228 207 236 223 185 197 230 235 231 232 246 257 257 255 256 258 261 264 266 269 268 257 247 255 262 268 271 272 277 281 286 289 290 288 281 274 278 277 274 274 279 279 273 266 254 272 285 281 268 280 292 265 221 225 210 199 224
343 344 341 337 339 343 340 329 332 329 324 4 354 335 333 337 333 330 295 268 266 186 151 159 172 173 178 176 190 216 237 130 166 216 225 176 186 218 239 247 244 237 252 266 266 268 269 267 269 269 267 269 269 261 255 256 257 262 266 273 284 296 300 294 287 279 273 277 274 269 272 276 270 270 268 247 252 272 265 256 291 295 283 271 261 231 188 204
341 343 342 335 338 340 318 298 317 323 335 345 335 329 331 328 323 306 279 299 276 222 159 125 108 166 195 168 206 239 262 94 182 198 180 161 183 211 224 245 257 255 250 248 252 260 271 274 275 275 265 258 265 267 266 263 264 276 279 282 290 289 286 283 279 275 277 279 273 266 266 268 266 275 282 251 239 269 277 227 275 277 263 250 289 284 166 167
340 342 342 334 334 341 306 292 300 303 320 332 328 328 324 315 313 273 252 300 278 307 53 115 125 181 208 196 214 235 241 225 196 153 161 167 189 224 242 250 254 260 260 258 261 257 257 263 272 283 277 265 267 263 263 262 266 289 296 297 293 280 272 274 274 273 275 271 269 272 271 273 275 275 287 272 239 312 343 275 241 302 342 22 26 16 73 114
338 339 341 334 330 341 324 288 278 300 320 327 325 323 313 301 288 248 228 279 291 0 79 210 145 161 207 225 226 219 224 231 188 155 189 199 202 220 252 265 255 263 261 255 260 261 262 262 267 280 284 291 296 289 287 288 293 304 302 292 287 282 275 269 267 269 269 263 263 267 266 267 274 270 286 304 297 169 232 291 22 25 24 27 31 24 19 43
336 336 338 330 320 322 312 285 307 333 331 329 328 319 300 275 252 263 243 285 302 324 282 235 129 105 240 259 265 221 216 234 205 182 203 215 207 205 225 246 238 247 255 250 250 252 254 258 262 261 254 264 279 286 292 290 290 290 279 274 276 279 276 268 265 261 259 264 262 267 272 271 278 291 287 302 325 347 79 63 53 46 42 36 32 29 19 19
335 335 332 322 309 300 285 289 326 333 327 328 326 308 280 252 233 248 256 289 299 340 333 311 316 321 291 287 287 256 238 243 225 210 223 234 224 204 209 220 218 229 241 244 247 251 250 249 258 261 244 234 242 261 279 274 269 263 258 263 269 272 276 275 276 265 261 269 276 304 316 297 280 294 291 324 58 53 54 64 65 59 55 47 36 36 28 19
334 334 329 322 301 281 275 290 310 318 323 325 312 273 268 269 245 248 265 283 288 93 340 310 293 299 304 291 276 260 245 240 241 232 235 252 251 230 218 215 222 235 254 269 263 262 261 261 270 278 274 266 261 256 262 272 268 259 261 265 262 267 274 275 277 273 272 272 297 335 324 298 318 307 298 9 82 83 75 71 71 69 63 55 46 40 35 27
334 334 331 327 297 274 274 288 302 313 318 313 285 241 238 244 257 271 271 274 291 333 344 324 315 306 292 280 276 275 255 227 248 247 239 250 255 256 255 241 234 236 249 271 278 274 266 263 256 257 277 334 304 273 252 265 273 270 272 267 262 271 274 276 281 282 290 289 295 311 292 281 343 277 286 352 76 85 84 82 78 75 67 58 54 45 37 30
336 337 326 311 292 276 275 286 302 314 309 296 263 239 228 234 259 264 271 298 321 345 347 330 322 302 289 278 273 283 277 228 253 265 259 262 261 261 277 289 290 285 244 243 259 272 268 267 267 265 260 253 268 270 260 259 269 278 274 260 260 269 267 277 282 281 289 289 280 277 265 258 242 240 286 5 84 88 82 83 78 72 67 60 55 48 42 34
337 338 321 296 280 284 297 298 307 309 297 279 253 237 233 243 260 268 316 349 332 345 337 320 315 295 291 282 264 268 233 216 260 271 266 264 264 260 257 57 46 40 274 255 256 261 262 271 281 284 272 246 238 261 266 254 270 294 282 269 272 271 268 277 280 274 275 274 270 261 261 266 253 227 145 61 72 77 72 70 74 73 68 64 57 53 49 39
333 333 318 296 298 343 320 315 313 297 286 272 248 249 258 262 271 285 357 6 332 339 331 313 317 304 299 297 281 280 97 180 255 257 262 260 264 266 238 106 113 280 290 272 266 269 267 273 272 267 265 249 227 248 263 268 272 281 278 280 288 275 265 269 275 271 269 269 272 272 272 273 267 255 165 119 85 80 79 70 75 77 72 70 63 58 52 42
318 311 301 280 289 344 327 324 311 284 271 259 248 256 271 275 278 290 354 9 335 334 322 300 301 300 295 295 292 304 27 330 268 266 269 262 282 321 306 227 171 274 297 268 261 270 270 274 268 259 263 262 244 244 251 248 239 246 265 273 282 281 270 267 261 260 270 274 275 276 277 276 271 300 81 100 88 84 86 74 75 77 73 71 65 59 52 45
300 287 288 202 54 348 334 317 298 273 256 252 251 252 259 259 266 288 12 12 330 319 302 285 280 280 283 290 294 300 315 316 302 303 292 277 288 355 316 302 203 177 298 280 279 279 273 275 266 256 263 270 266 251 250 242 226 239 256 251 244 261 270 264 246 248 261 268 274 275 274 278 285 100 103 106 107 110 109 100 93 86 78 73 67 59 48 44
303 291 127 102 355 335 329 301 277 256 248 248 256 265 273 278 280 332 54 35 323 307 290 285 288 282 282 288 290 293 301 304 299 292 290 298 291 240 249 326 269 259 328 292 286 283 270 268 265 264 269 269 260 238 246 255 248 250 255 249 239 242 258 260 252 252 253 252 262 268 266 276 50 97 114 121 134 141 137 141 147 123 106 95 81 62 45 35
307 298 114 59 330 313 308 282 250 241 252 250 256 262 275 318 309 308 8 351 274 276 281 283 284 285 293 295 291 292 295 296 290 281 278 282 280 271 37 62 312 285 320 287 276 283 276 268 266 261 259 258 247 235 238 243 250 258 268 274 267 254 258 263 261 261 260 262 259 251 258 258 161 131 139 153 160 161 162 172 165 127 106 104 100 78 56 39
280 293 350 6 327 295 283 264 247 249 251 251 265 272 283 350 292 289 303 294 275 269 271 268 271 279 284 283 287 294 297 295 284 280 279 275 281 290 39 81 52 330 334 296 285 329 359 290 279 264 252 261 265 267 269 273 282 286 273 267 271 271 270 265 265 270 271 276 273 264 269 251 174 172 174 174 179 179 180 204 237 82 70 81 95 81 59 54
277 307 318 328 320 286 265 257 268 259 249 258 267 279 294 302 292 296 299 290 287 285 277 269 270 274 272 274 282 284 284 286 278 275 277 276 286 326 88 94 59 352 317 295 295 349 8 281 269 268 262 267 268 269 269 270 278 276 249 245 255 258 261 259 261 271 276 278 276 269 270 261 217 182 135 135 141 344 72 8 328 344 36 34 68 72 41 20
308 300 293 276 248 280 258 262 291 288 291 293 285 285 289 289 291 289 286 290 293 291 287 283 280 279 278 278 277 278 283 285 273 274 279 277 281 69 83 59 38 307 310 358 359 5 336 272 261 264 264 263 258 255 250 245 253 258 250 257 267 267 268 268 271 280 277 268 267 266 265 266 280 303 133 139 145 103 41 343 302 309 356 342 357 53 43 355
302 277 258 226 199 232 260 284 312 306 306 308 306 305 300 294 294 282 271 281 289 293 292 283 281 285 286 281 273 273 276 274 277 283 285 282 278 229 191 137 116 256 57 42 17 355 297 277 275 265 258 256 251 242 231 281 294 295 287 284 282 276 273 275 280 275 264 266 267 265 264 271 281 288 281 249 212 203 208 232 259 275 281 290 317 24 49 354
314 297 307 278 221 255 259 260 275 272 291 311 309 302 296 289 293 288 269 263 273 289 291 282 282 280 281 284 279 273 269 264 270 273 273 277 274 275 281 250 221 214 103 78 19 341 296 276 275 273 268 270 277 289 326 340 317 299 291 281 275 276 282 288 279 258 263 273 267 256 258 268 276 281 289 297 298 290 288 290 293 297 301 319 333 341 10 347
293 319 347 353 318 300 278 277 314 311 318 331 327 309 306 300 301 307 305 285 278 294 298 291 286 281 280 280 275 275 276 271 270 268 270 273 269 271 280 275 247 191 144 157 192 192 268 265 261 268 271 274 281 289 300 307 296 287 284 277 273 278 283 284 273 269 277 277 263 258 264 268 274 279 284 293 300 305 306 308 314 317 324 330 318 307 306 305
302 321 4 13 318 298 308 329 343 335 316 315 313 306 302 295 291 294 298 294 281 280 281 269 269 272 272 272 269 270 273 271 273 274 274 276 281 278 268 261 252 185 163 207 216 177 240 254 251 258 262 266 274 280 286 289 285 283 280 275 272 271 270 271 271 273 274 271 269 276 277 274 273 277 280 283 291 295 296 303 310 306 305 305 301 307 316 316
329 314 358 9 333 303 308 312 318 313 301 298 298 295 291 289 289 289 292 298 291 284 284 281 283 286 286 283 275 268 276 283 280 282 287 290 301 306 291 274 264 204 182 237 246 215 241 257 265 269 268 268 268 267 274 279 278 276 273 272 271 270 268 268 266 265 266 265 269 274 275 272 271 274 280 287 294 292 289 293 295 288 292 308 318 331 336 331
350 325 344 350 321 300 303 302 299 295 289 280 272 271 270 273 279 280 281 283 282 285 288 287 294 309 317 309 290 278 313 337 333 329 325 315 304 300 305 305 291 268 252 257 247 218 226 256 276 281 277 271 268 269 273 274 274 272 268 266 266 268 269 264 258 257 258 260 263 268 271 271 270 272 277 280 282 279 276 275 278 276 276 298 307 308 316 321
355 322 303 305 303 306 307 298 290 284 283 276 274 285 286 284 295 304 304 302 302 304 305 303 307 324 328 309 300 314 350 350 337 332 328 318 307 296 295 309 303 295 288 282 282 227 188 239 272 273 267 267 272 277 275 271 270 268 264 262 263 265 263 259 255 252 250 254 258 261 265 267 270 274 275 274 273 274 275 273 277 289 304 307 305 310 308 299
352 323 298 284 287 296 295 288 282 275 271 268 283 305 290 284 301 314 317 328 318 307 324 333 327 328 307 289 302 342 345 331 325 325 317 307 302 295 287 283 281 284 290 292 304 309 276 267 268 259 260 267 268 270 273 275 270 261 258 262 263 261 257 254 255 255 254 254 251 251 257 268 276 277 274 276 278 283 290 291 287 297 322 323 311 306 295 285